KC8QDR-1 Weather Reports


time (UTC)temp
C
wind
direction
speed
KPH
gust
KPH
rain 1hr
cm
rain 24hr
cm
rain mn
cm
humidity
%
barometer
mb
20260510030845 12 243 6.4 8.0 0.08 1.42 1.22 91 1007.9
20260510025846 11 290 1.6 8.0 0.00 1.35 1.14 91 1007.6
20260510024845 11 196 1.6 1.6 0.00 1.35 1.12 91 1006.5
20260510023846 11 0 0.0 8.0 0.00 1.37 1.12 91 1006.7
20260510022845 11 178 1.6 0.0 0.00 1.40 1.12 91 1006.7
20260510021847 11 0 0.0 0.0 0.00 1.40 1.12 90 1006.4
20260510015845 11 0 0.0 1.6 0.00 1.40 1.12 90 1006.7
20260510014845 12 0 0.0 1.6 0.00 1.42 1.12 92 1006.6
20260510013845 12 0 0.0 3.2 0.00 1.42 1.12 89 1006.5
20260510012846 12 0 0.0 1.6 0.00 1.42 1.12 89 1006.5
20260510012214 12 0 0.0 0.0 0.00 1.45 1.12 90 1006.4
20260510011929 12 0 0.0 0.0 0.00 1.45 1.12 90 1006.4
20260510011845 12 0 0.0 0.0 0.00 1.45 1.12 90 1006.4
20260510010847 12 0 0.0 0.0 0.00 1.47 1.12 89 1006.1
20260510010152 12 0 0.0 1.6 0.08 1.50 1.12 88 1006.1
20260510005923 12 0 0.0 1.6 0.08 1.50 1.12 88 1006.1
20260510005845 12 0 0.0 1.6 0.08 1.50 1.12 88 1006.1
20260510004848 12 212 1.6 3.2 0.13 1.52 1.12 89 1006.2
20260510003845 12 0 0.0 3.2 0.36 1.57 1.12 88 1006.1
20260510002845 12 0 0.0 6.4 0.64 1.63 1.12 88 1006.1
20260510001848 12 0 0.0 6.4 0.64 1.68 1.12 89 1006.0
20260510000845 12 142 1.6 8.0 0.61 1.68 1.12 89 1006.2
20260509235845 12 0 0.0 14.5 0.56 1.65 1.04 89 1006.6
20260509233845 12 341 1.6 33.8 0.28 1.42 0.97 84 1006.1
20260509232845 16 329 14.5 45.1 0.00 1.17 0.48 69 1006.0
20260509231845 18 187 1.6 19.3 0.00 1.17 0.48 56 1003.4
20260509230845 18 179 6.4 22.5 0.00 1.19 0.48 55 1003.5
20260509225845 18 206 1.6 24.1 0.00 1.19 0.48 54 1003.5
20260509223845 17 92 3.2 16.1 0.00 1.27 0.64 61 1005.2
20260509222845 17 92 3.2 16.1 0.00 1.27 0.64 61 1005.2
20260509220845 17 92 3.2 16.1 0.00 1.27 0.64 61 1005.2
20260509215845 17 92 3.2 16.1 0.00 1.27 0.64 61 1005.2
20260509213845 17 92 3.2 16.1 0.00 1.27 0.64 61 1005.2
20260509212845 17 92 3.2 16.1 0.00 1.27 0.64 61 1005.2
20260509211845 17 92 3.2 16.1 0.00 1.27 0.64 61 1005.2
20260509210845 17 92 3.2 16.1 0.00 1.27 0.64 61 1005.2
20260509205845 17 92 3.2 16.1 0.00 1.27 0.64 61 1005.2
20260509204845 17 92 3.2 16.1 0.00 1.27 0.64 61 1005.2
20260509203845 17 92 3.2 16.1 0.00 1.27 0.64 61 1005.2
20260509202845 17 92 3.2 16.1 0.00 1.27 0.64 61 1005.2
20260509201845 17 92 3.2 16.1 0.00 1.27 0.64 61 1005.2
20260509200845 17 92 3.2 16.1 0.00 1.27 0.64 61 1005.2
20260509195845 17 92 3.2 16.1 0.00 1.27 0.64 61 1005.2
20260509194846 17 92 3.2 16.1 0.00 1.27 0.64 61 1005.2
20260509193845 17 92 3.2 16.1 0.00 1.27 0.64 61 1005.2
20260509192845 17 92 3.2 16.1 0.00 1.27 0.64 61 1005.2
20260509190845 17 92 3.2 16.1 0.00 1.27 0.64 61 1005.2
20260509185845 17 92 3.2 16.1 0.00 1.27 0.64 61 1005.2
20260509184845 17 92 3.2 16.1 0.00 1.27 0.64 61 1005.2
20260509183845 17 92 3.2 16.1 0.00 1.27 0.64 61 1005.2
20260509182845 17 92 3.2 16.1 0.00 1.27 0.64 61 1005.2
20260509181845 17 92 3.2 16.1 0.00 1.27 0.64 61 1005.2
20260509180848 17 92 3.2 16.1 0.00 1.27 0.64 61 1005.2
20260509180007 17 92 3.2 16.1 0.00 1.27 0.64 61 1005.2
20260509175849 17 92 3.2 16.1 0.00 1.27 0.64 61 1005.2
20260509174845 17 259 6.4 16.1 0.00 1.27 0.64 61 1005.2
20260509173845 17 200 8.0 19.3 0.00 1.27 0.64 64 1005.1
20260509172845 17 153 1.6 16.1 0.00 1.27 0.64 65 1005.2
20260509171845 17 203 1.6 22.5 0.00 1.27 0.64 66 1005.3
20260509170845 16 180 6.4 11.3 0.00 1.27 0.64 68 1005.5
20260509165845 16 173 8.0 22.5 0.00 1.27 0.64 67 1005.5
20260509164845 16 163 1.6 20.9 0.00 1.27 0.64 73 1005.7
20260509163847 16 0 0.0 19.3 0.00 1.27 0.64 73 1005.7
20260509162845 16 249 14.5 16.1 0.00 1.27 0.64 75 1005.9
20260509161845 16 196 9.7 20.9 0.00 1.27 0.64 76 1006.0
20260509160845 15 179 3.2 14.5 0.00 1.27 0.64 78 1006.0
20260509155845 15 219 3.2 17.7 0.00 1.27 0.64 76 1005.9
20260509154845 15 179 1.6 14.5 0.00 1.27 0.64 81 1005.9
20260509153845 15 0 0.0 9.7 0.00 1.27 0.64 78 1006.0
20260509152845 14 242 4.8 19.3 0.00 1.27 0.64 82 1005.9
20260509151847 14 209 1.6 8.0 0.00 1.27 0.64 83 1006.0
20260509150845 13 223 3.2 9.7 0.00 1.27 0.64 86 1006.1
20260509150056 13 222 9.7 4.8 0.00 1.27 0.64 87 1006.3
20260509145845 13 222 9.7 4.8 0.00 1.27 0.64 87 1006.3
20260509144845 12 217 4.8 6.4 0.00 1.27 0.64 88 1006.4
20260509142847 12 0 0.0 14.5 0.00 1.27 0.64 89 1006.4
20260509141846 12 0 0.0 8.0 0.00 1.27 0.64 89 1006.2
20260509140847 12 0 0.0 11.3 0.00 1.27 0.64 89 1006.2
20260509135845 11 0 0.0 6.4 0.00 1.27 0.64 90 1006.3
20260509134845 11 0 0.0 9.7 0.00 1.27 0.64 90 1006.3
20260509132845 11 0 0.0 9.7 0.00 1.35 0.64 91 1006.4
20260509131845 11 0 0.0 8.0 0.00 1.37 0.64 90 1006.4
20260509130845 11 200 3.2 4.8 0.00 1.37 0.64 91 1006.5
20260509124845 11 0 0.0 8.0 0.00 1.37 0.64 91 1006.7
20260509123847 10 158 1.6 9.7 0.00 1.37 0.64 91 1006.7
20260509122845 10 0 0.0 8.0 0.00 1.42 0.64 91 1006.6
20260509121845 10 0 0.0 3.2 0.00 1.55 0.64 91 1006.8
20260509120845 10 0 0.0 1.6 0.00 1.55 0.64 91 1006.8
20260509115845 10 158 1.6 3.2 0.00 1.55 0.64 91 1006.9
20260509114845 10 0 0.0 1.6 0.00 1.55 0.64 92 1006.9
20260509113958 10 0 0.0 4.8 0.00 1.55 0.64 92 1007.0
20260509113847 10 0 0.0 4.8 0.00 1.55 0.64 92 1007.0
20260509112845 10 0 0.0 3.2 0.00 1.55 0.64 91 1006.9
20260509111846 10 0 0.0 1.6 0.03 1.55 0.64 92 1006.8
20260509110845 10 0 0.0 1.6 0.03 1.55 0.64 92 1006.8
20260509105845 10 0 0.0 3.2 0.03 1.55 0.64 92 1006.5
20260509104845 10 0 0.0 1.6 0.03 1.55 0.64 92 1006.6
20260509103845 10 0 0.0 1.6 0.03 1.55 0.64 92 1006.7
20260509102845 10 0 0.0 6.4 0.03 1.55 0.64 92 1006.8
20260509101845 10 0 0.0 0.0 0.00 1.52 0.61 92 1006.8
20260509100845 10 0 0.0 1.6 0.00 1.52 0.61 92 1006.7
20260509095845 10 0 0.0 0.0 0.00 1.52 0.61 91 1006.7
20260509094845 10 0 0.0 1.6 0.03 1.52 0.61 92 1006.8
20260509093845 10 0 0.0 6.4 0.08 1.52 0.61 92 1006.8
20260509092845 10 0 0.0 8.0 0.08 1.52 0.61 92 1007.0
20260509091845 9 0 0.0 6.4 0.10 1.52 0.61 92 1007.1
20260509090845 9 0 0.0 4.8 0.13 1.52 0.61 92 1007.1
20260509085845 9 0 0.0 4.8 0.13 1.52 0.61 92 1007.0
20260509083845 9 0 0.0 1.6 0.10 1.45 0.56 92 1007.2
20260509082845 9 210 1.6 4.8 0.13 1.45 0.53 92 1007.2
20260509081845 9 0 0.0 11.3 0.15 1.42 0.51 92 1007.3
20260509080845 9 0 0.0 4.8 0.15 1.40 0.48 92 1007.3
20260509075846 9 0 0.0 8.0 0.20 1.40 0.48 91 1007.3
20260509074845 9 0 0.0 6.4 0.23 1.37 0.46 91 1007.2
20260509073845 9 0 0.0 4.8 0.20 1.35 0.43 91 1007.2
20260509072844 9 0 0.0 8.0 0.18 1.32 0.43 91 1007.2
20260509071845 9 0 0.0 4.8 0.15 1.27 0.38 91 1007.3
20260509070845 9 179 1.6 4.8 0.15 1.24 0.33 91 1007.4
20260509065845 9 0 0.0 6.4 0.15 1.19 0.30 91 1007.6
20260509064954 9 0 0.0 11.3 0.10 1.14 0.23 91 1007.6
20260509064848 9 0 0.0 11.3 0.10 1.14 0.23 91 1007.6
20260509064040 9 0 0.0 4.8 0.13 1.14 0.23 91 1007.7
20260509063845 9 0 0.0 4.8 0.13 1.14 0.23 91 1007.7
20260509062845 9 0 0.0 4.8 0.13 1.14 0.23 91 1007.6
20260509061845 9 0 0.0 4.8 0.10 1.12 0.20 91 1007.7
20260509060846 9 0 0.0 1.6 0.08 1.09 0.18 91 1007.9
20260509055845 9 0 0.0 4.8 0.03 1.04 0.15 91 1008.0
20260509054845 9 0 0.0 6.4 0.05 1.04 0.13 91 1008.1
20260509053845 9 0 0.0 11.3 0.03 1.02 0.10 91 1008.2
20260509052845 9 148 1.6 6.4 0.05 1.02 0.10 91 1008.3
20260509051845 9 0 0.0 4.8 0.08 1.02 0.10 91 1008.5
20260509050845 9 0 0.0 4.8 0.08 1.02 0.10 91 1008.6
20260509045845 9 0 0.0 4.8 0.10 1.02 0.10 91 1008.6
20260509044845 9 0 0.0 4.8 0.10 0.99 0.10 91 1008.7
20260509043845 9 0 0.0 0.0 0.15 0.99 0.08 91 1008.8
20260509042845 9 208 1.6 6.4 0.13 0.97 0.08 91 1008.9
20260509041845 9 0 0.0 3.2 0.10 0.94 0.03 91 1009.1
20260509040845 9 0 0.0 3.2 0.10 0.94 0.03 90 1009.2
20260509040006 9 146 1.6 6.4 0.08 0.91 0.76 90 1009.2
20260509035845 9 146 1.6 6.4 0.08 0.91 0.76 90 1009.2
20260509034845 9 0 0.0 9.7 0.05 0.89 0.71 90 1009.3
20260509033845 9 180 1.6 11.3 0.03 0.84 0.71 90 1009.6
20260509032845 9 0 0.0 3.2 0.05 0.84 0.69 90 1009.5
20260509031845 9 0 0.0 6.4 0.05 0.84 0.69 90 1009.5